Regional Weather Roundup
Issued by NWS

Home | Current Version | Previous Version | Graphics & Text | Print | Product List | Glossary On
Versions: 1 2 3 4 5 6 7 8 9 10 11 12 13 14 15 16 17 18 19 20 21 22 23 24 25 26 27 28 29 30 31 32 33 34 35 36 37 38 39 40 41 42 43 44 45 46 47 48 49 50
000
ASUS43 KLMK 241902
RWRKY
KENTUCKY REGIONAL WEATHER ROUNDUP
NATIONAL WEATHER SERVICE LOUISVILLE KY
200 PM EST WED DEC 24 2014

NOTE "FAIR" INDICATES FEW OR NO CLOUDS BELOW 12,000 FEET
WITH NO SIGNIFICANT WEATHER AND/OR OBSTRUCTIONS TO VISIBILITY.

KYZ001>023-026-027-061>063-070>075-242000-
WESTERN AND SOUTH CENTRAL KENTUCKY

CITY           SKY/WX    TMP DP  RH WIND       PRES   REMARKS
PADUCAH        CLOUDY    43  38  82 W13       29.68F
HENDERSON      CLOUDY    43  37  81 W9        29.63S
OWENSBORO      CLOUDY    44  41  89 W14       29.62S
HOPKINSVILLE   CLOUDY    46  41  81 W12       29.65F
BOWLING GREEN  LGT RAIN  45  40  82 W14G20    29.62R
GLASGOW        NOT AVBL
$$

KYZ024-025-028>034-038-045-046-053-242000-
NORTH CENTRAL KENTUCKY

CITY           SKY/WX    TMP DP  RH WIND       PRES   REMARKS
LOUISVILLE/SDF LGT RAIN  46  43  89 W16       29.50R FOG
LOUISVILLE/LOU LGT RAIN  45  42  89 W12G22    29.49R FOG
FORT KNOX      LGT RAIN  44  42  93 W14       29.51R FOG
$$

KYZ035>037-039>044-047>052-055>060-089>105-242000-
NORTHEAST KENTUCKY

CITY           SKY/WX    TMP DP  RH WIND       PRES   REMARKS
LEXINGTON      CLOUDY    60  55  83 S17G23    29.40F
COVINGTON      LGT RAIN  56  52  86 S9        29.36F FOG
FRANKFORT      LGT RAIN  57  54  89 SW17G26   29.40F FOG
$$

KYZ054-064>069-076>088-106>120-242000-
SOUTHEAST KENTUCKY

CITY           SKY/WX    TMP DP  RH WIND       PRES   REMARKS
JACKSON        CLOUDY    65  53  65 VRB5      29.45F
LONDON         CLOUDY    64  52  64 S15G24    29.46F
SOMERSET       NOT AVBL
MIDDLESBORO    CLOUDY    60  56  87 S5        29.53F
MONTICELLO     FOG       57  53  86 W28G39    29.54R VSB 1/2
$$



USA.gov is the U.S. government's official web portal to all federal, state and local government web resources and services.